Muskegon, MI

8:29 AM EDT on July 28, 2017 (GMT -0400)
Muskegon County

Weather History for KMKG - July, 2013

Change the Weather History Date:

Saturday, July 20, 2013

  Actual Average Record
Temperature  
Mean Temperature 76 °F 71 °F  
Max Temperature 85 °F 81 °F 92 °F (1955)
Min Temperature 66 °F 62 °F 44 °F (1941)
Degree Days  
Heating Degree Days 0 0  
Month to date heating degree days 2 4  
Since 1 June heating degree days 54 70  
Since 1 July heating degree days 2 4  
Cooling Degree Days 11 7  
Month to date cooling degree days 192 131  
Year to date cooling degree days 352 265  
Since 1 June cooling degree days 292 236  
Growing Degree Days 26 (Base 50)    
Moisture  
Dew Point 60 °F    
Average Humidity 61    
Maximum Humidity 87    
Minimum Humidity 34    
Precipitation  
Precipitation 0.00 in 0.08 in 1.50 in (1912)
Month to date precipitation 0.60 1.44  
Year to date precipitation 27.62 16.26  
Snow  
Snow 0.00 in 0.00 in - ()
Month to date snowfall 0.0 0.0  
Since 1 June snowfall 0.0 0.0  
Since 1 July snowfall 0.0 0.0  
Snow Depth 0.00 in    
Sea Level Pressure  
Sea Level Pressure 29.86 in    
Wind  
Wind Speed 7 mph (NNW)    
Max Wind Speed 16 mph    
Max Gust Speed 21 mph    
Visibility 10 miles    
Events      
T = Trace of Precipitation, MM = Missing Value Source: NWS Daily Summary

Daily Weather History Graph

Daily Weather History Graph

Search for Another Location

Airport or City:

Trip Planner

Search our weather history database for the weather conditions in past years. The results will help you decide how hot, cold, wet, or windy it might be!

Date:

Astronomy

Jul. 20, 2013 Rise Set
Actual Time 6:23 AM EDT 9:18 PM EDT
Civil Twilight 5:49 AM EDT 9:52 PM EDT
Nautical Twilight 5:07 AM EDT 10:34 PM EDT
Astronomical Twilight 4:16 AM EDT 11:24 PM EDT
Moon 7:21 PM EDT (7/20) 4:03 AM EDT (7/20)
Length of Visible Light 16h 02m
Length of Day
14h 54m
Waxing Gibbous, 93% of the Moon is Illuminated
Jul 20
Waxing Gibbous
Jul 22
Full
Jul 29
Last Quarter
Aug 6
New
Aug 14
First Quarter

Hourly Weather History & Observations

Time (EDT) Temp. Heat Index Dew Point Humidity Pressure Visibility Wind Dir Wind Speed Gust Speed Precip Events Conditions
12:55 AM 77.0 °F - 69.1 °F 76% 29.75 in 10.0 mi WNW 5.8 mph - N/A   Mostly Cloudy
1:55 AM 75.0 °F - 69.1 °F 82% 29.76 in 10.0 mi NNW 5.8 mph - N/A   Clear
2:55 AM 75.0 °F - 66.9 °F 76% 29.77 in 10.0 mi North 8.1 mph - N/A   Clear
3:55 AM 73.0 °F - 64.9 °F 76% 29.78 in 10.0 mi NE 6.9 mph - N/A   Clear
4:55 AM 71.1 °F - 64.0 °F 78% 29.79 in 10.0 mi ENE 3.5 mph - N/A   Partly Cloudy
5:55 AM 71.1 °F - 64.0 °F 78% 29.80 in 10.0 mi Calm Calm - N/A   Mostly Cloudy
6:55 AM 68.0 °F - 64.0 °F 87% 29.83 in 10.0 mi Calm Calm - N/A   Partly Cloudy
7:55 AM 72.0 °F - 64.0 °F 76% 29.84 in 10.0 mi Calm Calm - N/A   Clear
8:55 AM 77.0 °F - 57.9 °F 52% 29.86 in 10.0 mi ESE 3.5 mph - N/A   Partly Cloudy
9:55 AM 81.0 °F 80.8 °F 55.9 °F 42% 29.86 in 10.0 mi Calm Calm - N/A   Clear
10:55 AM 84.0 °F 82.9 °F 55.0 °F 37% 29.86 in 10.0 mi WNW 4.6 mph - N/A   Partly Cloudy
11:55 AM 84.0 °F 83.3 °F 57.0 °F 40% 29.88 in 10.0 mi West 9.2 mph - N/A   Scattered Clouds
12:55 PM 82.0 °F 82.7 °F 61.0 °F 49% 29.89 in 10.0 mi WSW 10.4 mph - N/A   Scattered Clouds
1:55 PM 82.0 °F 83.1 °F 63.0 °F 52% 29.89 in 10.0 mi West 13.8 mph - N/A   Scattered Clouds
2:55 PM 82.0 °F 83.4 °F 64.0 °F 54% 29.89 in 10.0 mi West 15.0 mph 20.7 mph N/A   Mostly Cloudy
3:55 PM 82.9 °F 83.3 °F 61.0 °F 47% 29.89 in 10.0 mi West 11.5 mph - N/A   Scattered Clouds
4:55 PM 82.9 °F 82.6 °F 57.9 °F 42% 29.88 in 10.0 mi WNW 9.2 mph - N/A   Scattered Clouds
5:55 PM 84.0 °F 83.0 °F 55.9 °F 38% 29.88 in 10.0 mi NNW 9.2 mph - N/A   Scattered Clouds
6:55 PM 82.0 °F - 51.1 °F 34% 29.88 in 10.0 mi NNW 11.5 mph - N/A   Scattered Clouds
7:55 PM 80.1 °F - 51.1 °F 36% 29.89 in 10.0 mi NNE 9.2 mph - N/A   Scattered Clouds
8:55 PM 75.9 °F - 51.1 °F 42% 29.91 in 10.0 mi North 6.9 mph - N/A   Scattered Clouds
9:55 PM 73.0 °F - 52.0 °F 48% 29.94 in 10.0 mi North 6.9 mph - N/A   Partly Cloudy
10:55 PM 70.0 °F - 51.1 °F 51% 29.95 in 10.0 mi North 9.2 mph - N/A   Partly Cloudy
11:55 PM 70.0 °F - 48.0 °F 46% 29.97 in 10.0 mi NNE 8.1 mph - N/A   Clear